www.pogodaiklimat.ru

Архив погоды в Самарканде (Самаркандская область, Узбекистан)

Время
(UTC), дата
03 19.05
06 19.05
09 19.05
12 19.05
15 19.05
18 19.05
21 19.05
00 20.05
03 20.05
06 20.05
09 20.05
12 20.05
15 20.05
18 20.05
21 20.05
00 21.05
03 21.05
06 21.05
09 21.05
12 21.05
15 21.05
18 21.05
21 21.05
00 22.05
03 22.05
06 22.05
09 22.05
12 22.05
15 22.05
18 22.05
21 22.05
00 23.05
03 23.05
06 23.05
09 23.05
12 23.05
15 23.05
18 23.05
21 23.05
00 24.05
03 24.05
06 24.05
09 24.05
12 24.05
15 24.05
18 24.05
21 24.05
00 25.05
03 25.05
06 25.05
09 25.05
12 25.05
15 25.05
18 25.05
21 25.05
00 26.05
Ветер
(напр.,м/с)
Видим. Явления Облачность Т
(С)
Тd
(С)
f
(%)
Тe
(С)
Тes
(С)
Комфортность P
(гПа)
Po
(гПа)
Тmin
(С)
Tmax
(С)
R
(мм)
R24
(мм)
S
(см)
штиль 0 10 км слаб. ливневой дождь {гроза} 10/10 600 м
[Cb cap]
+12.2 +11.1 93 +12 +12 по сезону 1018.3 934.8
штиль 0 10 км в посл. час ливневой дождь 10/10 600 м
[Cb cap]
+12.3 +10.4 88 +12 +12 по сезону 1019.1 935.6 +11.5 8
ЮЗ 3 10 км 10/10 600 м
[Cb cap]
+14.5 +9.4 71 +14 +14 по сезону 1018.3 935.4
Ю 3 10 км слаб. ливневой дождь 10/10 600 м
[Cb cap]
+13.7 +10.0 78 +13 +13 по сезону 1018.9 935.7
В 3 10 км слаб. ливневой дождь 10/10 600 м
[Cb cap]
+12.1 +10.2 88 +10 +10 по сезону 1019.5 935.8 +14.5 4
В 3 н/о {ливн. дождь} 10/10 600 м
[Cb cap]
+12.3 +9.5 83 +11 +11 по сезону 1018.8 935.3 +14.5 4
В 2 н/о слаб. ливневой дождь 10/10 600 м
[Cb cap]
+12.3 +11.0 92 +11 +11 тепло 1018.0 934.5
В 1 10 км слаб. ливневой дождь 10/10 600 м
[Cb cap]
+12.1 +10.7 91 +12 +12 прохладно 1016.9 933.5 -1.2
Ю 3 10 км в посл. час ливневой дождь 10/10 600 м
[Cb cap]
+12.5 +9.8 84 +11 +11 очень холодно 1018.1 934.6 4
СВ 2 50 км {ливн. дождь} 9/8 1000 м
[Sc Ac trans]
+14.2 +9.2 72 +14 +16 очень холодно 1017.1 934.2 +11.6 4
В 2 10 км {ливн. дождь} 9/9 600 м
[Cb cap]
+16.4 +10.2 67 +17 +18 очень холодно 1017.7 935.4 +11.6
В 2 10 км 9/8 600 м
[Cb cap Ac trans Ci]
+17.5 +11.2 67 +18 +19 очень холодно 1016.8 934.9
В 2 50 км 9/8 1000 м
[Sc Ac trans Ci]
+16.3 +11.8 75 +16 +16 холодно 1017.3 935.0 +18.3
В 1 н/о 1/1 1000 м
[Cu hum]
+14.6 +11.2 80 +15 +15 прохладно 1017.9 935.1 +18.3
В 1 н/о ясно +12.7 +11.0 89 +13 +13 прохладно 1018.5 935.2
В 1 50 км 3/0
[Ac lent Ci fib]
+12.0 +10.4 90 +12 +12 прохладно 1018.9 935.3
В 3 50 км 3/0
[Ci fib]
+16.4 +10.7 69 +16 +20 прохладно 1018.3 935.9
СВ 3 50 км 3/1 1000 м
[Cu hum Cc]
+21.1 +13.4 61 +23 +36 комфорт 1016.2 935.4 +11.7
З 2 50 км 8/6 1000 м
[Cu med, cong Ci fib]
+24.4 +13.9 52 +27 +33 жарко 1014.4 934.5
В 2 50 км 9/8 1000 м
[Sc Cc]
+23.1 +14.5 58 +27 +28 душно 1014.3 934.2
В 2 50 км 9/0
[Ac cast Cc]
+20.2 +13.8 67 +23 +23 комфорт 1015.4 934.4 +25.0
В 2 н/о 3/3 1000 м
[Sc]
+17.3 +13.2 77 +18 +18 по сезону 1016.6 934.7 +25.0
В 2 н/о 3/0
[Ci fib]
+16.2 +12.8 80 +16 +16 по сезону 1015.2 933.1
СВ 2 50 км 9/4 1000 м
[Sc Ac cast Cc]
+15.4 +12.8 84 +15 +15 по сезону 1015.2 932.9
В 2 50 км 9/5 1000 м
[Sc Ac cast Cs]
+17.7 +13.1 74 +18 +20 прохладно 1015.6 933.9
В 3 50 км 6/3 1000 м
[Sc Ac cast Ci fib]
+23.1 +9.7 43 +25 +33 комфорт 1013.8 933.5 +15.2
В 3 50 км 6/3 1000 м
[Cu hum Ac cast Ci fib]
+24.5 +12.1 46 +26 +34 жарко 1012.6 932.9
З 2 50 км 8/5 1000 м
[Sc Ac cast Ci fib]
+23.9 +11.8 47 +26 +28 жарко 1012.1 932.3
СВ 2 50 км 9/4 1000 м
[Sc Ac cast Ci fib]
+21.0 +10.9 52 +24 +24 комфорт 1012.9 932.2 +25.2
В 2 н/о 6/4 1000 м
[Sc Ac cast]
+19.5 +8.9 50 +21 +21 комфорт 1014.3 933.1 +25.2
В 3 н/о в посл. час ливневой дождь 9/9 600 м
[Cb cap]
+17.2 +10.5 65 +17 +17 по сезону 1013.3 931.5
В 1 50 км {ливн. дождь} 5/3 1000 м
[Sc Ac cast Ci fib]
+16.8 +8.6 58 +18 +18 тепло 1012.4 930.5
В 2 50 км ясно +18.7 +7.7 49 +20 +25 по сезону 1012.5 931.2
ЮВ 3 50 км ясно +22.4 +10.2 46 +24 +39 комфорт 1011.0 930.8 +16.5
В 3 50 км 3/3 1000 м
[Cu med, cong Cc]
+25.1 +11.5 43 +27 +37 жарко 1008.4 929.2
СВ 3 50 км 3/3 1000 м
[Cu med, cong]
+25.7 +11.8 42 +27 +31 жарко 1006.8 927.8
В 3 50 км 3/0
[Cc]
+22.2 +12.5 54 +25 +25 комфорт 1006.9 927.0 +26.3
ЮВ 2 н/о 5/0
[Ac cuf]
+20.4 +11.5 57 +23 +23 комфорт 1007.5 927.1 +26.3
ЮВ 2 н/о 6/0
[Ac As]
+18.8 +12.2 65 +20 +20 тепло 1008.5 927.6
ЮВ 1 10 км гроза, ливневой дождь 10/10 600 м
[Cb cap]
+17.8 +15.8 88 +19 +19 тепло 1007.6 926.6
З 1 50 км {гроза, ливн. дождь} 10/10 600 м
[Cb cap]
+19.1 +16.6 85 +22 +22 комфорт 1007.5 926.9
ЮВ 2 50 км в посл. час ливневой дождь {гроза} 10/9 600 м
[Cb cap Ac As]
+20.3 +15.1 72 +24 +24 комфорт 1010.4 929.8 +17.7 3
штиль 0 50 км {ливн. дождь, гроза} 8/8 600 м
[Cb cap]
+24.1 +13.5 52 +26 +31 жарко 1009.1 929.5
ЮЗ 2 50 км 6/1 1000 м
[Cu med, cong Ci]
+27.0 +12.0 39 +28 +33 жарко 1008.1 929.4
штиль 0 50 км 8/3 600 м
[Cb cap Ac lent Cc]
+22.7 +15.8 65 +27 +27 душно 1009.7 929.9 +27.2
Ю 1 н/о 4/0
[Cc]
+19.3 +13.7 70 +22 +22 комфорт 1011.2 930.3 +27.2 0.0
штиль 0 н/о 1/0
[Cc]
+16.4 +12.6 78 +16 +16 по сезону 1011.8 930.0
Ю 1 50 км 3/3 1000 м
[Sc]
+15.4 +11.7 79 +16 +16 по сезону 1011.9 929.8
штиль 0 50 км 3/3 1000 м
[Sc Ci fib]
+23.1 +13.4 54 +26 +32 жарко 1010.6 930.7
ЮЗ 2 50 км 8/8 1000 м
[Sc diur, vesp]
+27.7 +9.8 33 +28 +32 жарко 1010.7 931.8 +14.9
ЮЗ 3 50 км в посл. час ливневой дождь 8/8 1000 м
[Sc diur, vesp]
+25.3 +12.3 44 +27 +30 жарко 1012.0 932.5
З 2 50 км {ливн. дождь} 6/4 1000 м
[Cu med, cong Ac cuf]
+26.9 +8.5 31 +27 +30 жарко 1012.0 932.8
СЗ 3 50 км 6/6 1000 м
[Sc diur, vesp]
+22.5 +9.5 44 +24 +24 комфорт 1015.4 934.8 +29.0
В 1 н/о {ливн. дождь} 8/0
[Ac und]
+20.5 +10.4 52 +23 +23 комфорт 1017.8 936.6 +29.0 0.0
В 2 н/о 4/0
[Ac und]
+16.1 +6.2 52 +16 +16 по сезону 1019.9 937.2
З 3 50 км 3/0
[Ac cast Cs]
+10.3 +3.2 61 +8 +8 холодно 1022.7 938.2
Местоположение метеостанции Самарканд (Самаркандская область, Узбекистан): широта 39.57 долгота 66.95 высота над уровнем моря 724 м.
В архиве по умолчанию представлена погода в Самарканде за последнюю неделю. Архивные данные за месяц целиком и за предыдущие месяцы, начиная с января 2011 года, Вы можете получить, выбрав интересующий диапазон дат из раскрывающегося списка и нажав кнопку "Найти!".
*Определитесь, кто Вы:
Внимание! Время в таблицах - всемирное. Для получения местного времени необходимо прибавить поправку, которая равна 5 ч.
Некоторые строки с данными для отдельных станций могут быть выделены курсивом. Это означает, что фактические данные отсутствуют по различным причинам, а приведенные значения являются расчетными модельными данными для данного пункта наблюдений.
Смотрите также архив погоды в соседних городах и на ближайших метеорологических станциях:
Партнеры нашего сайта:      
Пояснения к столбцам:
  • Ветер - указаны скорость ветра в м/с - средняя за 10 мин, порывы в срок и между сроками (в фигурных скобках) и направление, откуда дует ветер: С - северный,
  • СВ - северо-восточный, В - восточный, ЮВ - юго-восточный, Ю - южный, ЮЗ - юго-западный, З - западный, СЗ - северо-западный.
  • Видимость - горизонтальная дальность видимости в метрах или километрах. При видимости от 1 до 10 км при отсутствии осадков обычно наблюдается дымка, при ухудшении видимости до 1 км и менее - туман. В сухую погоду видимость может ухудшаться дымом, пылью или мглою.
  • Явления - указаны атмосферные явления, наблюдавшиеся в срок или в последний час перед сроком; фигурными скобками обозначены явления, наблюдавшиеся между сроками (за 1-3 часа до срока); квадратными скобками обозначены град или гололедные отложения с указанием их диаметра в мм.
  • Облачность - указаны через наклонную черту общая и нижняя облачность в баллах и высота нижней границы облаков в метрах; квадратными скобками обозначены формы облаков: Ci - перистые, Cs - перисто-слоистые, Cc - перисто-кучевые, Ac - высококучевые, As - высокослоистые, Sc - слоисто-кучевые, Ns - слоисто-дождевые, Cu - кучевые, Cb - кучево-дождевые. Подробнее классификацию облаков см. в Атласе облаков (PDF).
  • T - Температура воздуха - температура, измеренная на высоте 2 м над землей.
  • Td - Температура точки росы - температура, при понижении до которой содержащийся в воздухе водяной пар достигнет насыщения.
  • f - Относительная влажность воздуха - влажноcть воздуха, измеренная на высоте 2 м над землей.
  • Te - Эффективная температура - температура, которую ощущает одетый по сезону человек в тени. Характеристика душности погоды. При расчете учитывается влияние влажности воздуха и скорости ветра на теплоощущения человека.
  • Tes - Эффективная температура на солнце - температура, которую ощущает человек, с поправкой на солнечный нагрев. Характеристика знойности погоды. Зависит от высоты солнца над горизонтом, облачности и скорости ветра. Ночью, в пасмурную погоду, а также при ветре 12 м/с и более поправка равна нулю.
  • P - Атмосферное давление - приведенное к уровню моря атмосферное давление.
  • Po - Атмосферное давление - измеренное на уровне метеостанции атмосферное давление.
  • Tmin - Минимальная температура - минимум температуры воздуха на высоте 2 м над землей.
  • Tmax - Максимальная температура - максимум температуры воздуха на высоте 2 м над землей.
  • R - Количество осадков - Количество выпавших осадков за период времени, мм. При наведении курсора мыши на число - период времени, за который выпало указанное количество осадков.
  • R24 - Количество осадков - Количество выпавших осадков за 24 часа, мм.
  • S - Снежный покров - Высота снежного покрова, см. При наведении курсора мыши на число - состояние снежного покрова и степень покрытия местности в баллах.